Flag for Mauritania Weather past 2 weeks in Nouakchott, Mauritania

Now
75 °F

Clear.


Feels Like: 77 °F
Forecast: 71 / 91 °F
Wind: 9 mph from North

Location: Nouakchott Airport


UV Index: 10 (Very high)

Visibility: 5 mi


Pressure: 29.83 "Hg

Humidity: 65%

Dew point: 63 °F

Location of NouakchottLocation

Historic Weather in Nouakchott

°F

Nouakchott temperature yesterday

Maximum temperature yesterday: 102 °F (at 1:00 PM)
Minimum temperature yesterday: 75 °F (at 7:30 AM)
Average temperature yesterday: 85 °F

Past Weeks' High & Low Weather Summary

 TemperatureHumidityPressure
High109 °F (Apr 17, 1:30 PM)100% (Apr 7, 3:30 AM)29.98 "Hg (Apr 7, 3:30 AM)
Low63 °F (Apr 7, 3:30 AM)7% (Apr 17, 2:00 PM)29.71 "Hg (Apr 18, 5:00 PM)
Average76 °F56%29.86 "Hg
* Reported Apr 6 2:00 AM — Apr 21 2:00 AM, Nouakchott, Weather by CustomWeather, © 2014

Note: Actual official high and low records may vary slightly from our data, if they occured in-between our weather recording intervals... More about our weather records

Advertising

Historic Weather Conditions — Data for Previous 24 hours

 ConditionsComfort  
Time TempWeatherWind HumidityBarometerVisibility
2:00 AM
Apr 21
75 °FClear.9 mph65%29.83 "Hg5 mi
1:30 AM77 °FClear.8 mph57%29.83 "Hg5 mi
1:00 AM79 °FClear.9 mph48%29.83 "Hg5 mi
12:30 AM79 °FClear.9 mph48%29.83 "Hg5 mi
12:00 AM79 °FClear.12 mph54%29.86 "Hg5 mi
11:30 PM
Apr 20
79 °FClear.12 mph54%29.86 "Hg5 mi
11:00 PM77 °FClear.12 mph61%29.86 "Hg5 mi
10:30 PM77 °FClear.12 mph61%29.86 "Hg5 mi
10:00 PM77 °FClear.13 mph57%29.86 "Hg5 mi
9:00 PM79 °FClear.13 mph54%29.83 "Hg5 mi
8:30 PM81 °FClear.14 mph51%29.83 "Hg5 mi
8:00 PM79 °FClear.13 mph54%29.80 "Hg5 mi
7:30 PM81 °FClear.12 mph51%29.80 "Hg5 mi
7:00 PM81 °FClear.14 mph48%29.80 "Hg5 mi
6:30 PM84 °FClear.13 mph40%29.80 "Hg5 mi
6:00 PM86 °FClear.14 mph38%29.80 "Hg5 mi
5:30 PM88 °FClear.15 mph33%29.77 "Hg5 mi
5:00 PM88 °FClear.16 mph33%29.77 "Hg5 mi
4:30 PM90 °FClear.16 mph29%29.80 "Hg5 mi
4:00 PM90 °FClear.15 mph29%29.80 "Hg5 mi
3:30 PM91 °FClear.13 mph26%29.80 "Hg5 mi
3:00 PM93 °FClear.14 mph23%29.80 "Hg5 mi
2:30 PM97 °FClear.12 mph20%29.80 "Hg4 mi
2:00 PM95 °FClear.12 mph22%29.83 "Hg4 mi
1:30 PM102 °FClear.13 mph11%29.83 "Hg4 mi
1:00 PM102 °FClear.15 mph11%29.86 "Hg4 mi
12:30 PM100 °FClear.15 mph12%29.86 "Hg4 mi
12:00 PM100 °FClear.15 mph12%29.86 "Hg4 mi
11:30 AM99 °FLow level haze.14 mph14%29.89 "Hg3 mi
11:00 AM97 °FLow level haze.17 mph13%29.89 "Hg3 mi
10:30 AM93 °FLow level haze.18 mph16%29.89 "Hg3 mi
10:00 AM91 °FLow level haze.17 mph18%29.89 "Hg3 mi
9:30 AM88 °FLow level haze.16 mph21%29.89 "Hg3 mi
9:00 AM84 °FLow level haze.14 mph25%29.89 "Hg3 mi
8:30 AM81 °FLow level haze.10 mph30%29.89 "Hg3 mi
8:00 AM77 °FLow level haze.10 mph34%29.86 "Hg3 mi
7:30 AM75 °FClear.10 mph36%29.86 "Hg4 mi
7:00 AM77 °FClear.12 mph34%29.86 "Hg5 mi
6:30 AM77 °FClear.10 mph34%29.86 "Hg5 mi
6:00 AM77 °FClear.10 mph36%29.86 "Hg5 mi
5:30 AM77 °FClear.9 mph36%29.86 "Hg5 mi
5:00 AM77 °FClear.10 mph36%29.83 "Hg5 mi
4:30 AM77 °FClear.9 mph36%29.83 "Hg5 mi
4:00 AM77 °FClear.9 mph36%29.83 "Hg5 mi
3:30 AM79 °FClear.9 mph34%29.83 "Hg5 mi
3:00 AM79 °FClear.9 mph34%29.83 "Hg5 mi
2:30 AM81 °FClear.10 mph32%29.86 "Hg5 mi
2:00 AM81 °FClear.9 mph32%29.86 "Hg5 mi
Weather by CustomWeather, © 2014

See weather overview